星链-34138 (STARLINK-34138)

导读 | 豆包AI

STARLINK-34138是美国SpaceX公司星链星座的成员卫星,于2025年5月13日由猎鹰9号火箭从佛罗里达州肯尼迪航天中心发射入轨。作为低轨宽带通信卫星,它采用平板设计与氪霍尔推进器,配备光学星间链路和自主避撞技术,旨在为全球提供高速互联网服务,寿命末期会主动离轨坠入大气层销毁。

基本信息
目录编号:
63971
目录名称:
STARLINK-34138
国际标识:
2025-099V
轨道中心:
EARTH
卫星名称:
星链-34138
卫星全名:
星链-34138 (STARLINK-34138)
卫星状态:
在轨 (已飞行305 天)
发射日期:
2025-05-13 UTC
国别 :
美国 (US)
星等 :
--
轨道信息
数据来源 国际轨道数据
星历时间: 2026-03-14T06:05:13+0800
20小时前
查看轨道信息
半长轴: 6861.156km
偏心率: 0.0001369
轨道倾角: 43.001°
近地点辐角 273.323°
升交点赤经 148.834°
平近点角 86.746°
近地点: 482.079km
远地点: 483.959km
周期: 94.266分钟
每日圈数: 15.275903
详细信息
固有亮度:
5
最大亮度:
2.5
卫星平台:
Starlink V1.0
覆盖范围:
全球
运营商:
太空探索技术公司
运营商所在国:
美国
制造商(研发单位):
太空探索技术公司
制造商所在国:
美国
使用方式:
暂无
卫星简介
Starlink 计划是 SpaceX 推出的全球卫星互联网项目,通过发射低轨道卫星,为全球尤其是偏远地区提供高速、低延迟的互联网服务。自 2019 年起,Starlink 已部署数千颗卫星,旨在缩小全球数字鸿沟,推动互联网普及。该项目还为军事、航空等行业提供通信支持,带来广泛经济效益。
2D轨道图
3D轨道图
轨道高度分析图
轨道倾角分析图
轨道综合分析图
查看轨道综合分析图